GW3830 Weather Reports


time (UTC)temp
F
wind
direction
speed
knots
gust
knots
rain 1hr
in
rain 24hr
in
rain mn
in
humidity
%
barometer
mb
20260510192749 68 278 7.0 7.8 0.00 0.00 0.00 48 1015.0
20260510192244 68 316 2.6 8.7 0.00 0.00 0.00 49 1015.0
20260510191741 68 298 4.3 7.0 0.00 0.00 0.00 48 1015.0
20260510191236 69 315 4.3 5.2 0.00 0.00 0.00 48 1014.7
20260510190734 69 162 6.1 8.7 0.00 0.00 0.00 47 1014.6
20260510190231 69 282 6.1 7.8 0.00 0.00 0.00 47 1014.6
20260510185727 69 297 4.3 6.1 0.00 0.00 0.00 46 1014.5
20260510185220 70 313 6.1 7.8 0.00 0.00 0.00 45 1014.6
20260510184716 71 280 6.1 9.6 0.00 0.00 0.00 45 1014.8
20260510184213 72 327 6.1 8.7 0.00 0.00 0.00 45 1014.6
20260510183708 70 7 1.7 7.0 0.00 0.00 0.00 47 1014.3
20260510183203 71 45 4.3 11.3 0.00 0.00 0.00 46 1014.6
20260510182700 70 295 7.8 9.6 0.00 0.00 0.00 46 1014.6
20260510182155 70 311 12.2 17.4 0.00 0.00 0.00 46 1014.7
20260510181653 72 4 6.1 8.7 0.00 0.00 0.00 45 1014.7
20260510181149 70 280 11.3 13.9 0.00 0.00 0.00 45 1014.8
20260510180645 69 269 10.4 12.2 0.00 0.00 0.00 46 1014.7
20260510180143 70 274 11.3 14.8 0.00 0.00 0.00 46 1014.7
20260510175639 69 294 3.5 7.0 0.00 0.00 0.00 47 1015.0
20260510175135 69 257 11.3 14.8 0.00 0.00 0.00 46 1014.9
20260510174632 70 301 9.6 13.0 0.00 0.00 0.00 46 1014.9
20260510174130 71 296 10.4 11.3 0.00 0.00 0.00 44 1014.9
20260510173625 69 319 7.8 8.7 0.00 0.00 0.00 48 1014.8
20260510173122 70 283 5.2 9.6 0.00 0.00 0.00 47 1015.0
20260510172617 69 291 3.5 6.1 0.00 0.00 0.00 49 1015.0
20260510172114 69 83 2.6 6.1 0.00 0.00 0.00 47 1014.8
20260510171611 69 335 6.1 11.3 0.00 0.00 0.00 47 1015.0
20260510171108 68 300 12.2 15.6 0.00 0.00 0.00 49 1015.2
20260510170604 69 297 13.0 15.6 0.00 0.00 0.00 48 1015.2
20260510170101 69 176 0.0 0.9 0.00 0.00 0.00 50 1015.2
20260510165557 68 310 10.4 13.0 0.00 0.00 0.00 51 1015.4
20260510165052 68 316 10.4 13.9 0.00 0.00 0.00 52 1015.2
20260510164549 68 299 9.6 12.2 0.00 0.00 0.00 51 1015.2
20260510164046 68 323 6.1 14.8 0.00 0.00 0.00 52 1015.4
20260510163536 69 79 0.9 1.7 0.00 0.00 0.00 52 1015.1
20260510163033 68 321 9.6 13.0 0.00 0.00 0.00 52 1015.0
20260510162528 69 274 8.7 13.9 0.00 0.00 0.00 50 1015.1
20260510162025 69 312 2.6 6.1 0.00 0.00 0.00 52 1015.2
20260510161520 69 338 3.5 7.0 0.00 0.00 0.00 53 1015.2
20260510161017 68 339 0.9 1.7 0.00 0.00 0.00 55 1015.3
20260510160515 68 292 4.3 7.0 0.00 0.00 0.00 54 1015.3
20260510160014 68 94 2.6 8.7 0.00 0.00 0.00 57 1015.4
20260510155510 68 62 2.6 4.3 0.00 0.00 0.00 56 1015.2
20260510155007 68 304 8.7 13.0 0.00 0.00 0.00 54 1015.2
20260510154503 67 278 5.2 7.8 0.00 0.00 0.00 57 1015.2
20260510154003 66 349 11.3 13.0 0.00 0.00 0.00 56 1015.1
20260510153458 67 283 7.0 15.6 0.00 0.00 0.00 56 1015.3
20260510152956 67 320 4.3 7.8 0.00 0.00 0.00 56 1015.4
20260510152453 67 44 0.9 5.2 0.00 0.00 0.00 57 1015.1
20260510151949 66 333 7.8 8.7 0.00 0.00 0.00 57 1014.9
20260510151446 66 345 8.7 9.6 0.00 0.00 0.00 56 1015.1
20260510150942 66 288 9.6 12.2 0.00 0.00 0.00 56 1015.2
20260510150438 66 326 4.3 7.8 0.00 0.00 0.00 56 1015.0
20260510145933 66 192 1.7 5.2 0.00 0.00 0.00 57 1015.1
20260510145425 66 295 3.5 7.0 0.00 0.00 0.00 56 1014.9
20260510144921 66 302 2.6 7.8 0.00 0.00 0.00 57 1015.0
20260510144418 66 232 2.6 6.1 0.00 0.00 0.00 57 1014.8
20260510143913 65 274 5.2 7.8 0.00 0.00 0.00 57 1015.1
20260510143409 65 248 9.6 12.2 0.00 0.00 0.00 55 1015.0
20260510142907 64 38 1.7 2.6 0.00 0.00 0.00 58 1014.8
20260510142403 64 8 7.0 7.8 0.00 0.00 0.00 58 1014.7
20260510141900 64 315 5.2 7.0 0.00 0.00 0.00 59 1014.7
20260510141357 63 358 0.9 4.3 0.00 0.00 0.00 60 1014.6
20260510140854 64 298 11.3 13.9 0.00 0.00 0.00 59 1014.7
20260510140349 63 288 4.3 9.6 0.00 0.00 0.00 62 1014.8
20260510135843 63 286 1.7 2.6 0.00 0.00 0.00 62 1014.8
20260510135339 62 289 7.8 11.3 0.00 0.00 0.00 61 1014.7
20260510134837 62 287 12.2 13.9 0.00 0.00 0.00 61 1014.7
20260510134334 62 261 1.7 5.2 0.00 0.00 0.00 62 1014.9
20260510133830 62 350 3.5 7.8 0.00 0.00 0.00 62 1014.8
20260510133326 62 287 8.7 12.2 0.00 0.00 0.00 61 1014.6
20260510132822 62 293 10.4 13.0 0.00 0.00 0.00 62 1014.5
20260510132320 62 322 2.6 4.3 0.00 0.00 0.00 62 1014.8
20260510131817 62 90 0.0 0.9 0.00 0.00 0.00 63 1014.7
20260510131314 62 23 2.6 7.0 0.00 0.00 0.00 63 1014.8
20260510130810 62 299 6.1 8.7 0.00 0.00 0.00 63 1014.9
20260510130308 62 140 6.1 8.7 0.00 0.00 0.00 62 1014.5
20260510125804 62 313 4.3 7.0 0.00 0.00 0.00 62 1014.6
20260510125300 62 269 2.6 4.3 0.00 0.00 0.00 63 1014.6
20260510124757 61 335 1.7 4.3 0.00 0.00 0.00 64 1014.7
20260510124254 60 316 1.7 5.2 0.00 0.00 0.00 65 1014.8
20260510123749 60 308 5.2 9.6 0.00 0.00 0.00 66 1014.7
20260510123246 60 301 0.0 0.0 0.00 0.00 0.00 68 1014.3
20260510122742 60 280 0.9 5.2 0.00 0.00 0.00 67 1014.3
20260510122238 60 273 4.3 7.0 0.00 0.00 0.00 68 1014.3
20260510121734 59 263 0.0 0.0 0.00 0.00 0.00 69 1014.5
20260510121232 59 276 6.1 7.8 0.00 0.00 0.00 69 1014.2
20260510120724 58 272 0.0 0.0 0.00 0.00 0.00 72 1014.0
20260510120220 57 315 3.5 6.1 0.00 0.00 0.00 72 1014.0
20260510115716 57 287 0.9 1.7 0.00 0.00 0.00 74 1014.0
20260510115214 56 285 0.0 0.0 0.00 0.00 0.00 74 1013.9
20260510114709 56 282 0.9 4.3 0.00 0.00 0.00 74 1013.8
20260510114207 56 278 0.0 0.0 0.00 0.00 0.00 75 1013.8
20260510113701 56 257 0.0 1.7 0.00 0.00 0.00 75 1013.8
20260510113158 56 252 1.7 6.1 0.00 0.00 0.00 75 1013.7
20260510112654 55 303 6.1 7.0 0.00 0.00 0.00 76 1013.9
20260510112151 55 312 3.5 5.2 0.00 0.00 0.00 77 1013.9
20260510111642 55 299 1.7 4.3 0.00 0.00 0.00 77 1013.8
20260510111138 55 305 5.2 7.8 0.00 0.00 0.00 78 1013.8
20260510110633 54 272 2.6 5.2 0.00 0.00 0.00 79 1013.7
20260510110131 54 350 0.0 0.9 0.00 0.00 0.00 79 1013.7
20260510105626 54 317 2.6 4.3 0.00 0.00 0.00 80 1013.5
20260510105121 54 299 2.6 5.2 0.00 0.00 0.00 80 1013.4
20260510104618 54 284 4.3 7.0 0.00 0.00 0.00 81 1013.3
20260510104115 54 300 4.3 6.1 0.00 0.00 0.00 81 1013.4
20260510103612 53 310 6.1 7.0 0.00 0.00 0.00 82 1013.4
20260510103108 53 295 4.3 6.1 0.00 0.00 0.00 82 1013.3
20260510102603 53 306 0.0 0.0 0.00 0.00 0.00 83 1013.1
20260510102059 53 295 4.3 6.1 0.00 0.00 0.00 83 1013.3
20260510101557 53 297 7.0 7.8 0.00 0.00 0.00 83 1012.8
20260510101055 53 302 6.1 7.0 0.00 0.00 0.00 82 1012.7
20260510100551 53 322 4.3 6.1 0.00 0.00 0.00 83 1012.8
20260510100049 53 328 4.3 5.2 0.00 0.00 0.00 83 1012.7
20260510095545 53 310 6.1 7.0 0.00 0.00 0.00 83 1012.7
20260510095044 53 276 2.6 5.2 0.00 0.00 0.00 83 1012.7
20260510094544 53 295 7.8 7.8 0.00 0.00 0.00 83 1012.6
20260510094039 53 293 1.7 5.2 0.00 0.00 0.00 83 1012.6
20260510093535 53 313 5.2 6.1 0.00 0.00 0.00 83 1012.5
20260510093033 53 298 3.5 7.0 0.00 0.00 0.00 83 1012.5
20260510092530 54 297 2.6 5.2 0.00 0.00 0.00 82 1012.6
20260510092029 54 304 3.5 4.3 0.00 0.00 0.00 81 1012.6
20260510091526 54 302 3.5 5.2 0.00 0.00 0.00 80 1012.4
20260510091022 54 284 3.5 6.1 0.00 0.00 0.00 80 1012.2
20260510090519 55 275 1.7 5.2 0.00 0.00 0.00 79 1012.2
20260510090015 54 309 5.2 7.8 0.00 0.00 0.00 79 1012.2
20260510085515 55 336 0.9 1.7 0.00 0.00 0.00 79 1012.4
20260510085012 54 289 3.5 6.1 0.00 0.00 0.00 79 1012.1
20260510084508 54 348 4.3 6.1 0.00 0.00 0.00 80 1011.9
20260510084005 54 261 0.0 1.7 0.00 0.00 0.00 80 1012.3
20260510083502 54 36 0.0 0.0 0.00 0.00 0.00 79 1011.9
20260510082957 54 294 10.4 13.9 0.00 0.00 0.00 80 1011.9
20260510082455 54 325 0.9 2.6 0.00 0.00 0.00 79 1012.1
20260510081955 54 304 3.5 7.0 0.00 0.00 0.00 79 1011.9
20260510081450 54 301 5.2 7.0 0.00 0.00 0.00 80 1011.8
20260510080947 54 15 1.7 4.3 0.00 0.00 0.00 80 1011.8
20260510080445 54 257 0.0 0.9 0.00 0.00 0.00 80 1011.8
20260510075942 54 312 4.3 6.1 0.00 0.00 0.00 80 1011.7
20260510075440 54 3 0.9 4.3 0.00 0.00 0.00 80 1011.7
20260510074937 54 296 3.5 6.1 0.00 0.00 0.00 80 1011.8
20260510074434 54 313 4.3 8.7 0.00 0.00 0.00 80 1011.6
20260510073930 54 57 0.9 5.2 0.00 0.00 0.00 80 1011.8
20260510073426 54 303 0.0 0.9 0.00 0.00 0.00 80 1011.6
20260510072922 54 311 3.5 6.1 0.00 0.00 0.00 80 1011.7
20260510072420 54 347 0.0 0.0 0.00 0.00 0.00 81 1011.6
20260510071915 54 271 7.0 12.2 0.00 0.00 0.00 83 1011.5
20260510071411 53 305 2.6 5.2 0.00 0.00 0.00 84 1012.1
20260510070910 53 305 4.3 5.2 0.00 0.00 0.00 84 1011.8
20260510070407 53 234 0.9 1.7 0.00 0.00 0.00 84 1011.8
20260510065902 53 274 0.0 0.9 0.00 0.00 0.00 84 1011.7
20260510065359 53 27 4.3 6.1 0.00 0.00 0.00 84 1011.7
20260510064855 54 302 0.9 1.7 0.00 0.00 0.00 84 1011.5
20260510064353 54 322 4.3 6.1 0.00 0.00 0.00 83 1011.8
20260510063849 54 278 4.3 7.8 0.00 0.00 0.00 83 1011.8
20260510063346 54 257 5.2 7.0 0.00 0.00 0.00 83 1011.7
20260510062843 54 310 6.1 7.8 0.00 0.00 0.00 83 1011.6
20260510062338 54 288 9.6 12.2 0.00 0.00 0.00 82 1011.5
20260510061833 54 353 1.7 6.1 0.00 0.00 0.00 82 1011.8
20260510061331 54 305 2.6 6.1 0.00 0.00 0.00 82 1011.6
20260510060826 54 286 6.1 8.7 0.00 0.00 0.00 83 1011.5
20260510060324 54 319 5.2 7.0 0.00 0.00 0.00 82 1011.5
20260510055821 54 328 0.9 2.6 0.00 0.00 0.00 83 1011.8
20260510055319 54 301 5.2 7.0 0.00 0.00 0.00 82 1011.8
20260510054819 54 8 4.3 7.8 0.00 0.00 0.00 82 1011.6
20260510054315 54 4 4.3 6.1 0.00 0.00 0.00 83 1011.6
20260510053809 54 320 5.2 7.0 0.00 0.00 0.00 82 1011.9
20260510053300 54 332 1.7 5.2 0.00 0.00 0.00 83 1011.9
20260510052756 55 301 3.5 6.1 0.00 0.00 0.00 82 1011.9
20260510052251 55 292 4.3 7.0 0.00 0.00 0.00 81 1011.9
20260510051748 54 269 6.1 7.8 0.00 0.00 0.00 82 1011.6
20260510051239 54 316 1.7 4.3 0.00 0.00 0.00 82 1011.9
20260510050736 55 321 3.5 7.0 0.00 0.00 0.00 81 1011.7
20260510050233 55 309 4.3 6.1 0.00 0.00 0.00 81 1011.7
20260510045730 54 306 5.2 7.0 0.00 0.00 0.00 82 1011.7
20260510045226 54 30 0.0 0.0 0.00 0.00 0.00 81 1011.9
20260510044723 55 349 2.6 5.2 0.00 0.00 0.00 81 1011.8
20260510044221 55 35 0.0 0.0 0.00 0.00 0.00 80 1011.7
20260510043716 55 245 0.0 0.0 0.00 0.00 0.00 79 1012.1
20260510043213 55 310 4.3 7.0 0.00 0.00 0.00 79 1011.9
20260510042710 55 277 7.0 8.7 0.00 0.00 0.00 79 1011.9
20260510042206 55 292 3.5 5.2 0.00 0.00 0.00 79 1011.8
20260510041703 55 294 2.6 7.0 0.00 0.00 0.00 78 1011.8
20260510041201 55 296 7.8 8.7 0.00 0.00 0.00 78 1012.1
20260510040657 55 296 6.1 7.0 0.00 0.00 0.00 78 1011.8
20260510040154 55 276 4.3 6.1 0.00 0.00 0.00 78 1011.8
20260510035650 56 305 2.6 4.3 0.00 0.00 0.00 77 1011.6
20260510035145 55 285 3.5 6.1 0.00 0.00 0.00 77 1011.6
20260510034642 55 310 0.0 0.0 0.00 0.00 0.00 77 1011.8
20260510034139 56 300 0.9 1.7 0.00 0.00 0.00 77 1011.6
20260510033635 56 292 4.3 5.2 0.00 0.00 0.00 76 1011.7
20260510033133 56 313 7.8 9.6 0.00 0.00 0.00 76 1011.8
20260510032630 56 332 0.9 2.6 0.00 0.00 0.00 76 1011.8
20260510032125 56 316 1.7 4.3 0.00 0.00 0.00 76 1011.7
20260510031620 56 298 0.9 2.6 0.00 0.00 0.00 76 1011.9
20260510031117 56 321 3.5 5.2 0.00 0.00 0.00 76 1011.6
20260510030611 56 315 5.2 6.1 0.00 0.00 0.00 75 1011.7
20260510030109 55 249 0.0 0.0 0.00 0.00 0.00 75 1011.8
20260510025606 56 304 0.0 0.0 0.00 0.00 0.00 75 1011.8
20260510025104 55 355 1.7 5.2 0.00 0.00 0.00 75 1011.8
20260510024600 55 298 6.1 7.8 0.00 0.00 0.00 75 1012.1
20260510024057 55 329 1.7 2.6 0.00 0.00 0.00 75 1011.8
20260510023553 55 310 0.0 0.0 0.00 0.00 0.00 74 1011.8
20260510023050 56 312 0.0 0.0 0.00 0.00 0.00 74 1011.7
20260510022549 56 357 0.0 0.0 0.00 0.00 0.00 73 1011.8
20260510022044 56 329 0.0 0.0 0.00 0.00 0.00 73 1012.1
20260510021540 56 253 0.0 0.0 0.00 0.00 0.00 72 1011.5
20260510021038 56 308 0.0 0.0 0.00 0.00 0.00 72 1011.5
20260510020532 56 310 0.0 0.0 0.00 0.00 0.00 72 1011.6
20260510020028 56 283 0.0 0.0 0.00 0.00 0.00 72 1011.3
20260510015518 56 297 0.0 0.0 0.00 0.00 0.00 71 1011.5
20260510015014 56 238 0.0 0.0 0.00 0.00 0.00 72 1011.3
20260510014511 56 283 0.0 0.0 0.00 0.00 0.00 71 1011.1
20260510014009 56 355 0.0 0.0 0.00 0.00 0.00 71 1011.1
20260510013508 56 313 0.0 0.0 0.00 0.00 0.00 70 1011.0
20260510013004 56 342 0.0 0.0 0.00 0.00 0.00 70 1010.8
20260510012458 57 341 0.0 0.0 0.00 0.00 0.00 70 1010.5
20260510011954 57 4 0.0 0.0 0.00 0.00 0.00 69 1010.7
20260510011449 56 300 0.0 0.0 0.00 0.00 0.00 69 1010.7
20260510010945 57 312 0.0 0.0 0.00 0.00 0.00 69 1010.5
20260510010443 57 29 0.0 0.0 0.00 0.00 0.00 68 1010.7
20260510005939 57 303 0.0 0.0 0.00 0.00 0.00 68 1010.6
20260510005435 57 339 0.0 0.0 0.00 0.00 0.00 67 1010.6
20260510004933 57 6 0.0 0.0 0.00 0.00 0.00 67 1010.5
20260510004430 57 296 0.0 0.0 0.00 0.00 0.00 66 1010.4
20260510003929 57 307 2.6 5.2 0.00 0.00 0.00 66 1010.1
20260510003425 58 336 0.0 0.0 0.00 0.00 0.00 66 1010.5
20260510002924 58 302 0.0 0.9 0.00 0.00 0.00 65 1010.5
20260510002421 58 5 0.9 2.6 0.00 0.00 0.00 64 1010.2
20260510001918 59 23 0.0 0.0 0.00 0.00 0.00 64 1010.2
20260510001415 59 317 0.0 0.9 0.00 0.00 0.00 63 1010.3
20260510000912 59 299 0.0 0.9 0.00 0.00 0.00 62 1010.2
20260510000411 59 271 5.2 8.7 0.00 0.00 0.00 62 1010.2
20260509235905 59 305 4.3 7.8 0.00 0.00 0.00 61 1009.9
20260509235402 60 330 5.2 7.0 0.00 0.00 0.00 61 1009.9
20260509234858 60 333 2.6 6.1 0.00 0.00 0.00 61 1009.6
20260509234355 60 284 0.0 2.6 0.00 0.00 0.00 60 1009.9
20260509233853 61 297 4.3 6.1 0.00 0.00 0.00 59 1009.8
20260509233351 61 274 2.6 5.2 0.00 0.00 0.00 59 1009.8
20260509232846 61 54 0.9 5.2 0.00 0.00 0.00 59 1009.8
20260509232344 61 305 7.8 9.6 0.00 0.00 0.00 58 1009.8
20260509231840 61 333 0.9 5.2 0.00 0.00 0.00 58 1009.8
20260509231337 61 270 0.0 0.0 0.00 0.00 0.00 58 1009.5
20260509230835 61 302 8.7 11.3 0.00 0.00 0.00 58 1009.2
20260509230332 61 266 12.2 15.6 0.00 0.00 0.00 57 1009.3
20260509225826 61 287 4.3 5.2 0.00 0.00 0.00 58 1009.5
20260509225324 61 282 4.3 6.1 0.00 0.00 0.00 58 1009.4
20260509224820 62 331 0.0 0.0 0.00 0.00 0.00 57 1009.6
20260509224316 61 272 7.8 14.8 0.00 0.00 0.00 57 1009.5
20260509223813 62 284 11.3 12.2 0.00 0.00 0.00 55 1009.5
20260509223310 61 289 9.6 9.6 0.00 0.00 0.00 56 1009.9
20260509222807 62 293 7.8 13.0 0.00 0.00 0.00 56 1009.9
20260509222306 62 274 4.3 7.0 0.00 0.00 0.00 55 1009.8
20260509221758 63 276 12.2 13.9 0.00 0.00 0.00 54 1009.8
20260509221255 62 293 4.3 8.7 0.00 0.00 0.00 55 1010.1
20260509220750 62 15 0.0 0.9 0.00 0.00 0.00 56 1009.8
20260509220247 62 298 4.3 7.8 0.00 0.00 0.00 54 1010.0
20260509215742 63 301 5.2 7.0 0.00 0.00 0.00 54 1009.8
20260509215239 62 329 0.0 0.0 0.00 0.00 0.00 54 1010.0
20260509214736 62 308 0.9 2.6 0.00 0.00 0.00 56 1009.9
20260509214234 62 257 7.8 8.7 0.00 0.00 0.00 53 1009.8
20260509213730 62 328 7.0 11.3 0.00 0.00 0.00 53 1010.1
20260509213226 62 279 5.2 8.7 0.00 0.00 0.00 52 1009.9
20260509212723 63 306 0.0 0.9 0.00 0.00 0.00 53 1009.6
20260509212220 63 270 1.7 4.3 0.00 0.00 0.00 52 1009.5
20260509211716 62 308 0.9 1.7 0.00 0.00 0.00 53 1009.8
20260509211213 62 294 5.2 6.1 0.00 0.00 0.00 55 1009.5
20260509210709 61 321 0.0 0.0 0.00 0.00 0.00 56 1009.4
20260509210202 62 289 9.6 12.2 0.00 0.00 0.00 54 1009.4
20260509205701 62 297 1.7 4.3 0.00 0.00 0.00 53 1009.6
20260509205201 62 310 0.9 2.6 0.00 0.00 0.00 54 1009.3
20260509204658 62 284 7.8 12.2 0.00 0.00 0.00 52 1009.5
20260509204154 63 347 5.2 8.7 0.00 0.00 0.00 51 1009.3
20260509203650 62 275 0.0 0.0 0.00 0.00 0.00 52 1009.2
20260509203148 64 275 10.4 13.9 0.00 0.00 0.00 49 1009.2
20260509202643 64 21 3.5 7.8 0.00 0.00 0.00 49 1008.9
20260509202138 63 292 3.5 5.2 0.00 0.00 0.00 48 1009.2
20260509201634 63 234 0.9 5.2 0.00 0.00 0.00 49 1008.9
20260509201131 62 261 2.6 7.0 0.00 0.00 0.00 51 1009.0
20260509200626 63 279 10.4 12.2 0.00 0.00 0.00 47 1008.9
20260509200117 63 322 0.0 0.0 0.00 0.00 0.00 51 1009.2
20260509195613 62 317 3.5 6.1 0.00 0.00 0.00 53 1009.1
20260509195108 62 302 4.3 7.0 0.00 0.00 0.00 52 1009.1
20260509194607 62 312 1.7 2.6 0.00 0.00 0.00 51 1008.8
20260509194105 62 241 0.0 0.0 0.00 0.00 0.00 52 1008.9
20260509193601 63 272 5.2 6.1 0.00 0.00 0.00 50 1008.7
20260509193057 62 107 0.0 0.0 0.00 0.00 0.00 51 1008.9